Regional Weather Roundup
Issued by NWS

Home | Current Version | Previous Version | Graphics & Text | Print | Product List | Glossary On
Versions: 1 2 3 4 5 6 7 8 9 10 11 12 13 14 15 16 17 18 19 20 21 22 23 24 25 26 27 28 29 30 31 32 33 34 35 36 37 38 39 40 41 42 43 44 45 46 47 48 49 50
000
ASUS45 KSLC 260310
RWRUT

UTAH REGIONAL WEATHER ROUNDUP
NATIONAL WEATHER SERVICE SALT LAKE CITY UT
800 PM MST TUE NOV 25 2014

UTZ001>011-023>025-260400-

NORTHERN UTAH

CITY           SKY/WX    TMP DP  RH WIND       PRES   REMARKS
HILL AFB       CLOUDY    44  32  63 S14       30.28S
LOGAN          CLOUDY    39  34  82 N8        30.25S WCI  33
OGDEN          CLOUDY    45  33  63 S9        30.28R
PROVO AIRPORT  CLOUDY    36  25  64 CALM      30.35
SALT LAKE CITY MOCLDY    44  31  60 SE9       30.30R
VERNAL         CLEAR     32  20  61 NW3       30.17R
WENDOVER       PTCLDY    54  32  43 NW13      30.31R
HEBER CITY     CLOUDY    32  30  93 SE7       30.31S WCI  26
WEST JORDAN    CLOUDY    45  30  57 S13       30.31S

$$

UTZ012>022-026-027-260400-

SOUTHERN/CENTRAL UTAH

CITY           SKY/WX    TMP DP  RH WIND       PRES   REMARKS
BLANDING       CLEAR     30   8  38 N7        30.41R WCI  24
BRYCE CANYON   CLEAR     34  19  54 W10       30.40R WCI  26
CEDAR CITY     CLEAR     32  15  49 SW7       30.37R WCI  26
DELTA          CLEAR     35  21  55 NE5       30.36S WCI  31
MILFORD        CLEAR     37  20  50 W12       30.36R WCI  29
MOAB/CYNLANDS  CLEAR     32   7  35 SE5       30.28S WCI  27
PRICE          CLOUDY    34  18  52 N3        30.28R
ST GEORGE      PTCLDY    45   9  23 S3        30.41R
KANAB          CLEAR     32   9  37 CALM      30.44R

$$

REGIONAL REPORTS     COLORADO/ARIZONA

CITY           SKY/WX    TMP DP  RH WIND       PRES   REMARKS
CRAIG, CO      CLOUDY    28  22  78 E10       30.18R WCI  19
GRAND JUNCTION CLOUDY    33  22  63 NE5       30.30R WCI  29
RIFLE          CLOUDY    28  23  81 CALM      30.31S
MONTROSE       CLOUDY    33  17  51 CALM      30.31S
CORTEZ         CLEAR     25  10  53 E7        30.34F WCI  17
PAGE, AZ       CLEAR     41  10  28 SE3       30.35R
GRAND CANYON   PTCLDY    25   4  40 CALM      30.44R
KINGMAN        CLEAR     38   7  27 SE3       30.38R
FLAGSTAFF      CLEAR     39  11  31 VRB5      30.39S

$$

REGIONAL REPORTS    NEVADA/IDAHO/WYOMING

CITY           SKY/WX    TMP DP  RH WIND       PRES   REMARKS
LAS VEGAS, NV  CLEAR     56  16  20 SW9       30.33R
ELY            CLEAR     33  33 100 S6        30.44R WCI  28
ELKO           CLEAR     37  29  72 W3        30.41S
POCATELLO, ID  CLOUDY    47  40  76 SW28G43   30.17R
BURLEY         CLOUDY    50  37  61 W15G23    30.23R
EVANSTON, WY   MOCLDY    33  31  92 SW25G37   30.22F WCI  20
ROCK SPRINGS   CLOUDY    34  29  82 W28G35    30.10R WCI  21

$$


USA.gov is the U.S. government's official web portal to all federal, state and local government web resources and services.